DW3637 Weather Reports


time (UTC)temp
F
wind
direction
speed
knots
gust
knots
rain 1hr
in
rain 24hr
in
rain mn
in
humidity
%
barometer
mb
20260508022516 51 0.0 3.5 0.00 0.03 0.02 44 1008.5
20260508021517 51 0.0 1.7 0.00 0.04 0.02 44 1008.5
20260508020517 51 0.0 0.9 0.00 0.04 0.02 44 1008.6
20260508015519 51 0.0 1.7 0.00 0.04 0.02 44 1008.5
20260508014517 50 0.0 0.9 0.00 0.04 0.02 46 1008.5
20260508013516 50 0.0 1.7 0.00 0.05 0.02 47 1008.6
20260508012516 50 0.0 0.9 0.00 0.05 0.02 47 1008.5
20260508011556 51 0.0 0.9 0.00 0.05 0.02 45 1008.3
20260508010516 52 0.0 0.9 0.00 0.06 0.02 44 1008.2
20260508005537 52 0.0 0.0 0.00 0.09 0.02 43 1008.0
20260508004516 53 0.0 0.9 0.00 0.09 0.02 42 1007.8
20260508003516 53 0.0 0.9 0.00 0.09 0.02 42 1007.7
20260508002516 54 0.0 0.9 0.00 0.09 0.02 41 1007.6
20260508001517 54 23 0.9 4.3 0.00 0.09 0.02 39 1007.6
20260508000516 55 0 0.9 2.6 0.00 0.09 0.02 39 1007.5
20260507235516 55 23 1.7 7.0 0.00 0.09 0.02 38 1007.4
20260507234516 56 0.0 1.7 0.00 0.09 0.02 39 1007.4
20260507233516 56 45 0.9 4.3 0.00 0.09 0.02 38 1007.2
20260507232516 57 315 0.9 4.3 0.00 0.09 0.02 37 1007.1
20260507231516 59 338 0.9 3.5 0.00 0.09 0.02 36 1007.0
20260507230516 59 23 1.7 8.7 0.00 0.09 0.02 35 1007.0
20260507225516 59 23 1.7 5.2 0.00 0.09 0.02 35 1007.0
20260507224516 59 45 0.9 3.5 0.00 0.09 0.02 37 1007.1
20260507223516 59 315 2.6 8.7 0.00 0.09 0.02 37 1007.0
20260507222536 60 45 2.6 7.8 0.00 0.09 0.02 35 1006.9
20260507221516 60 0 1.7 7.0 0.00 0.09 0.02 38 1006.8
20260507220516 59 45 1.7 7.0 0.00 0.10 0.02 36 1006.7
20260507215516 59 23 2.6 6.1 0.00 0.10 0.02 37 1006.7
20260507214536 60 23 1.7 6.1 0.00 0.11 0.02 37 1006.7
20260507213516 60 45 2.6 6.1 0.00 0.11 0.02 37 1006.5
20260507212516 59 23 1.7 5.2 0.00 0.11 0.02 37 1006.5
20260507211516 61 23 2.6 8.7 0.00 0.11 0.02 35 1006.5
20260507210516 62 23 3.5 8.7 0.00 0.11 0.02 33 1006.4
20260507205516 63 23 1.7 5.2 0.00 0.12 0.02 34 1006.3
20260507204516 63 23 2.6 6.1 0.00 0.12 0.02 33 1006.3
20260507203516 64 315 1.7 6.1 0.00 0.12 0.02 34 1006.3
20260507202516 63 23 1.7 6.1 0.00 0.12 0.02 34 1006.4
20260507201516 63 23 2.6 7.0 0.00 0.13 0.02 35 1006.5
20260507200536 63 23 2.6 7.8 0.00 0.14 0.02 35 1006.6
20260507195516 61 23 2.6 10.4 0.00 0.14 0.02 36 1006.6
20260507194516 61 45 1.7 7.8 0.00 0.15 0.02 36 1006.8
20260507193557 61 23 1.7 7.8 0.00 0.15 0.02 36 1006.9
20260507192516 62 23 2.6 7.8 0.00 0.15 0.02 36 1007.0
20260507191515 63 23 1.7 7.0 0.00 0.16 0.02 34 1006.8
20260507190515 63 45 2.6 6.1 0.00 0.16 0.02 35 1007.0
20260507185518 64 45 2.6 8.7 0.00 0.16 0.02 34 1007.1
20260507184516 63 23 3.5 9.6 0.00 0.16 0.02 35 1007.1
20260507183519 63 45 2.6 7.8 0.00 0.16 0.02 35 1007.0
20260507182515 63 0 3.5 8.7 0.00 0.17 0.02 34 1007.1
20260507181515 63 338 2.6 8.7 0.00 0.17 0.02 35 1007.2
20260507180536 63 270 2.6 8.7 0.00 0.17 0.02 38 1007.4
20260507175518 63 0 2.6 9.6 0.00 0.18 0.02 35 1007.4
20260507174535 63 293 3.5 10.4 0.00 0.18 0.02 34 1007.5
20260507173515 63 338 2.6 7.0 0.00 0.19 0.02 35 1007.3
20260507172515 63 338 2.6 7.8 0.00 0.20 0.02 32 1007.6
20260507171517 63 270 1.7 7.8 0.00 0.20 0.02 36 1007.4
20260507170520 62 315 3.5 8.7 0.00 0.20 0.02 36 1007.5
20260507165518 62 45 1.7 6.1 0.00 0.20 0.02 36 1007.5
20260507164522 61 248 2.6 6.1 0.00 0.20 0.02 37 1007.8
20260507163549 62 23 1.7 6.1 0.00 0.20 0.02 37 1007.9
20260507162537 61 45 2.6 10.4 0.00 0.20 0.02 35 1008.1
20260507161523 61 45 2.6 7.0 0.00 0.20 0.02 38 1008.2
20260507160519 61 23 1.7 6.1 0.00 0.20 0.02 38 1008.5
20260507155519 60 23 1.7 7.8 0.00 0.20 0.02 40 1008.5
20260507154517 60 45 1.7 5.2 0.00 0.20 0.02 39 1008.6
20260507153518 60 90 1.7 5.2 0.00 0.20 0.02 39 1008.6
20260507152517 59 113 1.7 5.2 0.00 0.20 0.02 39 1008.6
20260507151537 60 23 1.7 6.1 0.00 0.20 0.02 38 1008.6
20260507150518 59 68 0.9 3.5 0.00 0.20 0.02 40 1008.6
20260507145517 58 45 1.7 4.3 0.00 0.20 0.02 44 1008.8
20260507144520 58 45 1.7 7.8 0.00 0.20 0.02 40 1008.9
20260507143517 58 23 1.7 7.0 0.00 0.20 0.02 42 1009.0
20260507142538 58 23 0.9 5.2 0.00 0.20 0.02 43 1009.0
20260507141517 57 0 0.9 5.2 0.00 0.20 0.02 48 1009.0
20260507140517 56 338 3.5 9.6 0.00 0.20 0.02 44 1008.9
20260507135517 56 45 1.7 5.2 0.00 0.20 0.02 46 1009.0
20260507134517 55 0 0.9 5.2 0.00 0.20 0.02 47 1008.9
20260507133517 55 23 1.7 7.0 0.00 0.20 0.02 48 1008.9
20260507132517 55 23 1.7 4.3 0.00 0.20 0.02 48 1008.9
20260507131517 54 23 1.7 7.0 0.00 0.20 0.02 52 1008.9
20260507130517 54 23 1.7 4.3 0.00 0.20 0.02 54 1008.9
20260507125517 54 23 0.9 3.5 0.00 0.20 0.02 56 1008.8
20260507124517 53 23 1.7 6.1 0.00 0.20 0.02 58 1008.9
20260507123517 53 45 1.7 4.3 0.00 0.20 0.02 61 1008.8
20260507122537 52 45 1.7 9.6 0.00 0.20 0.02 64 1008.8
20260507121517 52 23 1.7 6.1 0.00 0.20 0.02 66 1008.9
20260507120517 51 0 1.7 7.0 0.00 0.20 0.02 69 1008.9
20260507115517 51 315 3.5 8.7 0.00 0.20 0.02 71 1008.9
20260507114517 50 293 1.7 7.0 0.00 0.20 0.02 76 1008.7
20260507113517 50 293 2.6 7.0 0.00 0.20 0.02 77 1008.7
20260507112537 50 338 2.6 7.0 0.00 0.20 0.02 80 1008.5
20260507111518 49 315 1.7 6.1 0.00 0.20 0.02 81 1008.4
20260507110518 49 315 0.9 4.3 0.00 0.20 0.02 83 1008.4
20260507105517 49 270 0.9 4.3 0.00 0.20 0.02 84 1008.3
20260507104517 49 338 0.9 3.5 0.00 0.20 0.02 84 1008.1
20260507103518 49 338 0.9 3.5 0.00 0.20 0.02 85 1007.8
20260507102517 49 45 0.9 3.5 0.00 0.20 0.02 85 1007.6
20260507101517 49 23 0.9 4.3 0.00 0.20 0.02 85 1007.5
20260507100517 49 23 1.7 4.3 0.00 0.20 0.02 86 1007.6
20260507095517 49 315 1.7 4.3 0.00 0.20 0.02 87 1007.6
20260507094517 49 0.0 1.7 0.00 0.20 0.02 87 1007.4
20260507093517 49 0.0 1.7 0.00 0.20 0.02 88 1007.4
20260507092557 49 338 0.9 5.2 0.00 0.20 0.02 88 1007.4
20260507091517 49 0.0 1.7 0.00 0.20 0.02 89 1007.6
20260507090517 49 0 0.9 3.5 0.00 0.20 0.02 90 1007.3
20260507085517 49 0.0 1.7 0.00 0.20 0.02 91 1007.5
20260507084537 50 270 0.9 3.5 0.00 0.20 0.02 92 1007.5
20260507083516 50 0.0 4.3 0.00 0.20 0.02 92 1007.9
20260507082517 50 0.0 0.0 0.00 0.20 0.02 92 1007.7
20260507081517 50 0.0 0.9 0.00 0.20 0.02 92 1008.0
20260507080517 50 0.0 1.7 0.00 0.20 0.02 92 1007.9
20260507075517 50 0.0 0.9 0.01 0.20 0.02 92 1007.6
20260507074517 50 0.0 0.9 0.02 0.20 0.02 92 1007.6
20260507073537 51 0.0 0.0 0.02 0.20 0.02 91 1007.3
20260507072517 51 0.0 0.0 0.02 0.20 0.02 91 1007.5
20260507071517 51 0.0 0.0 0.02 0.20 0.02 91 1007.6
20260507070536 51 0.0 1.7 0.02 0.20 0.02 90 1007.1
20260507065517 51 0.0 0.9 0.01 0.19 0.01 90 1007.2
20260507064517 51 0.0 2.6 0.00 0.18 0.00 90 1007.6
20260507063516 52 0.0 0.9 0.00 0.18 0.00 90 1007.3
20260507062516 52 0.0 1.7 0.00 0.18 0.00 90 1007.0
20260507061557 52 0.0 1.7 0.00 0.18 0.00 90 1006.7
20260507060516 52 0.0 1.7 0.00 0.18 0.00 90 1006.6
20260507055517 52 0.0 0.9 0.00 0.18 0.00 90 1006.7
20260507054516 52 0.0 3.5 0.00 0.18 0.00 91 1007.2
20260507053516 52 0.0 0.9 0.00 0.18 0.00 90 1007.3
20260507052516 52 0.0 0.9 0.00 0.18 0.00 91 1007.5
20260507051517 52 0.0 0.9 0.00 0.18 0.00 91 1007.2
20260507050516 53 0.0 0.9 0.00 0.18 0.00 91 1007.4
20260507045516 53 0.0 1.7 0.00 0.18 0.00 91 1007.9
20260507044516 53 0.0 0.0 0.00 0.18 0.00 90 1007.7
20260507043520 53 0.0 0.9 0.00 0.18 0.00 90 1007.6
20260507042516 53 0.0 0.0 0.00 0.18 0.00 90 1007.5
20260507041517 53 0.0 0.0 0.00 0.18 0.00 90 1007.4
20260507040516 53 0.0 0.0 0.00 0.18 0.00 90 1007.5
20260507035517 53 0.0 0.0 0.01 0.18 0.18 90 1007.3
20260507034516 53 0.0 0.9 0.01 0.18 0.18 90 1007.3
20260507033517 53 0.0 1.7 0.01 0.18 0.18 91 1007.3
20260507032517 53 0.0 2.6 0.01 0.18 0.18 91 1007.4
20260507031537 54 315 0.9 2.6 0.02 0.18 0.18 92 1007.4
20260507030517 54 0.0 0.9 0.02 0.18 0.18 92 1007.2
20260507025537 55 0.0 1.7 0.01 0.17 0.17 92 1007.2
20260507024516 55 0.0 3.5 0.01 0.17 0.17 93 1007.1
20260507023517 56 0.0 0.9 0.02 0.17 0.17 93 1007.0